Find Starlink 36356

NORAD ID: 68242 Int'l Des: 2026-054 Owner: SPXS Country: US Constellation: starlink operational
LEOCIRCULAR

Live Position

Loading 3D Globe...

About Starlink 36356

Description loading...

Upcoming Passes

Passes for default location (London). Set your location on the main map for personalized predictions.

Altitude History

Loading altitude history...

Two-Line Element Set

1 68242U 26054L 26106.25002315 -.01922527 00000-0 -19797-1 0 9996
2 68242 53.1591 125.0740 0001132 66.1906 13.6130 15.67283086 5995
Epoch: Apr 16, 2026 • Age: 6 hours

Current Status

Altitude 373.3 km
Velocity 7.69 km/s
Sub-Earth Point 42.02°N, 127.69°W
Launch Date Mar 17, 2026
Age 29 days
Type internet

Technical Details

Classification Payload
Mass 575.00 kg
Dry Mass 530.00 kg
Total Mass 575.00 kg
Length 0.30 m
Diameter 4.10 m
Span 29.00 m
Shape Box + pan
Manufacturer SPXS
Bus Type Starlink V2MO
Phase Status In Orbit
Owner/State SPXS/US

Most Searched